Location: Владивосток
(43.1151°N, 131.8856°E)
Time: 04:29:14
(UTC+10:00)

FENGYUN 1C DEB - Visible Passes

Search period start: 08 October 2024 00:00
Search period end: 18 October 2024 00:00
Orbit: 601 x 967 km, 98.4° (Epoch: 06 October)

Date Brightness Start Highest point End Pass type
(mag) Time Alt. Az. Time Alt. Az. Time Alt. Az.
08 Oct ? 06:13:58 10° ENE 06:15:34 12° E 06:17:09 10° ESE visible
08 Oct ? 19:09:19 10° SSW 19:14:17 38° W 19:18:50 10° NNW visible
10 Oct ? 06:48:46 10° NE 06:52:26 29° E 06:56:10 10° SSE visible
10 Oct ? 19:47:42 10° SW 19:51:04 17° W 19:54:17 10° NW visible
11 Oct ? 06:18:35 10° ENE 06:20:45 14° E 06:22:58 10° ESE visible
11 Oct ? 19:14:50 10° SSW 19:19:30 33° W 19:23:48 10° NNW visible
13 Oct ? 06:53:42 10° NNE 06:57:31 33° E 07:01:28 10° SSE visible
13 Oct ? 19:53:29 10° SW 19:56:15 15° W 19:58:55 10° WNW visible
14 Oct ? 06:23:14 10° NE 06:25:52 16° E 06:28:34 10° SE visible
14 Oct ? 19:20:18 10° SSW 19:24:37 29° W 19:28:39 10° NW visible
16 Oct ? 19:59:21 10° WSW 20:01:21 12° W 20:03:18 10° WNW visible
17 Oct ? 06:27:54 10° NE 06:30:54 18° E 06:34:01 10° SE visible
17 Oct ? 19:25:41 10° SSW 19:29:39 25° W 19:33:23 10° NW visible
